Location: Caltech
(34.1382°N, 118.1253°W)
Time: 06:57:55
(UTC-07:00)

HO-68 - Visible Passes

Search period start: 29 April 2016 00:00
Search period end: 09 May 2016 00:00
Orbit: 1192 x 1205 km, 100.1° (Epoch: 29 April)

Date Brightness Start Highest point End Pass type
(mag) Time Alt. Az. Time Alt. Az. Time Alt. Az.
29 Apr ? 21:15:19 10° SSW 21:21:43 35° W 21:28:11 10° NW visible
30 Apr ? 20:57:53 10° S 21:04:43 48° W 21:11:36 10° NNW visible
01 May ? 20:40:41 10° S 20:47:46 64° WSW 20:54:53 10° NNW visible
02 May ? 20:23:40 10° SSE 20:30:50 84° WSW 20:38:02 10° NNW visible
02 May ? 22:17:35 10° WSW 22:19:21 11° W 22:21:07 10° WNW visible
03 May ? 20:06:49 10° SSE 20:13:57 75° ENE 20:21:06 10° N visible
03 May ? 21:58:01 10° SW 22:02:12 16° W 22:06:25 10° NW visible
04 May ? 21:39:42 10° SW 21:45:06 23° W 21:50:32 10° NW visible
05 May ? 21:21:53 10° SSW 21:28:03 31° W 21:34:15 10° NW visible
06 May ? 21:04:21 10° S 21:11:02 42° W 21:17:45 10° NNW visible
07 May ? 20:47:04 10° S 20:54:03 57° WSW 21:01:05 10° NNW visible
08 May ? 20:29:58 10° S 20:37:07 75° WSW 20:44:17 10° NNW visible
